Location: Friedrichshafen
(47.6598°N, 9.4819°E)
Time: 14:57:04
(UTC+02:00)

ISS - Pass Details

Date: 06 January 2018
Orbit: 402 x 408 km, 51.6° (Epoch: 20 July)

Event Time Altitude Azimuth Distance (km) Brightness Sun altitude
Exits shadow 05:27:06 20° 56° (NE) 1,034 -1.3 -26.5°
Drops below altitude 10° 05:28:20 10° 65° (ENE) 1,501 -0.2 -26.3°
Enters shadow 06:24:07 -70° 267° (W) 12,402 3.6 -17.0°
Maximum altitude 07:02:08 45° 9° (N) 587 -3.1 -11.0°
